Location: Emory University Observatory
(33.7903°N, 84.3267°W)
Time: 14:40:00
(UTC-04:00)

ISS - Pass Details

Date: 13 October 2017
Orbit: 401 x 408 km, 51.6° (Epoch: 19 October)

Event Time Altitude Azimuth Distance (km) Brightness Sun altitude
Rises 20:18:03 0° 321° (NW) 2,322 0.6 -15.9°
Reaches altitude 10° 20:20:16 10° 332° (NNW) 1,461 -0.6 -16.3°
Enters shadow 20:23:12 32° 36° (NE) 724 -2.9 -16.9°
